Regional Weather Roundup
Issued by NWS

Home | Current Version | Previous Version | Graphics & Text | Print | Product List | Glossary On
Versions: 1 2 3 4 5 6 7 8 9 10 11 12 13 14 15 16 17 18 19 20 21 22 23 24 25 26 27 28 29 30 31 32 33 34 35 36 37 38 39 40 41 42 43 44 45 46 47 48 49 50
066
ASUS45 KPSR 290610
RWRAZ

ARIZONA HOURLY REGIONAL WEATHER ROUNDUP
NATIONAL WEATHER SERVICE PHOENIX AZ
1100 PM MST SAT MAY 28 2016

NOTE: FAIR INDICATES FEW OR NO CLOUDS BELOW 12,000 FEET WITH NO
SIGNIFICANT WEATHER AND/OR OBSTRUCTIONS TO VISIBILITY.

AZZ001>003-036-290700-
NORTHWEST ARIZONA

CITY           SKY/WX    TMP DP  RH WIND       PRES   REMARKS
KINGMAN        CLEAR     67  27  22 MISG      29.96R
6HR MIN TEMP:  67; 6HR MAX TEMP:  86;

$$

AZZ004>008-015-016-018-290700-
NORTH CENTRAL ARIZONA

CITY           SKY/WX    TMP DP  RH WIND       PRES   REMARKS
GRAND CANYON   CLEAR     43  26  51 CALM      30.15S
6HR MIN TEMP:  41; 6HR MAX TEMP:  72;

WILLIAMS       CLEAR     46  19  34 S7        30.23S
PRESCOTT       CLEAR     60  23  24 S8        30.06S
6HR MIN TEMP:  60; 6HR MAX TEMP:  78;

FLAGSTAFF      CLEAR     42  21  43 CALM      30.19R
6HR MIN TEMP:  41; 6HR MAX TEMP:  70;

PAYSON         CLEAR     64  21  19 NE3       30.09S
PAGE           PTCLDY    70  30  22 W3        29.98S
6HR MIN TEMP:  69; 6HR MAX TEMP:  84;

$$

AZZ009>014-017-290700-
NORTHEAST ARIZONA

CITY           SKY/WX    TMP DP  RH WIND       PRES   REMARKS
WINSLOW        CLEAR     61  20  20 W9        30.04S
6HR MIN TEMP:  61; 6HR MAX TEMP:  84;

SAINT JOHNS    CLEAR     55  18  23 S5        30.08S
6HR MIN TEMP:  55; 6HR MAX TEMP:  78;

WINDOW ROCK    PTCLDY    57  29  34 CALM      30.16S
6HR MIN TEMP:  56; 6HR MAX TEMP:  74; 6HR PCP: TRACE;

SHOW LOW       CLEAR     54  16  22 CALM      30.15R
$$

AZZ023-290700-
GREATER PHOENIX AREA

CITY           SKY/WX    TMP DP  RH WIND       PRES   REMARKS
PHOENIX        CLEAR     83  33  16 W14       29.82R
6HR MIN TEMP:  83; 6HR MAX TEMP:  96;

BUCKEYE        CLEAR     77  32  19 SW6       29.86S
LUKE AFB       CLEAR     83  34  17 SW17      29.82R
6HR MIN TEMP:  83; 6HR MAX TEMP:  96;

DEER VALLEY    CLEAR     81  32  17 SW15      29.84R
6HR MIN TEMP:  81; 6HR MAX TEMP:  94;

SCOTTSDALE     CLEAR     82  32  16 W8G17     29.87R
6HR MIN TEMP:  82; 6HR MAX TEMP:  95;

MESA-GATEWAY   CLEAR     81  34  18 SW10      29.86R
$$

AZZ027-028-290700-
SOUTHWEST MARICOPA COUNTY AND PINAL COUNTY

CITY           SKY/WX    TMP DP  RH WIND       PRES   REMARKS
CASA GRANDE    CLEAR     79  32  18 W10       29.88R
6HR MIN TEMP:  79; 6HR MAX TEMP:  95;

GILA BEND      FAIR      79  31  17 SW8       29.85R
6HR MIN TEMP:  79; 6HR MAX TEMP:  95;

$$

AZZ503-504-507>509-290700-
SOUTHEAST ARIZONA

CITY           SKY/WX    TMP DP  RH WIND       PRES   REMARKS
TUCSON         CLEAR     76  30  18 NW5       29.97R
6HR MIN TEMP:  75; 6HR MAX TEMP:  93;

DAVIS-MONTHAN  CLEAR     72  25  17 SW3       29.96R
6HR MIN TEMP:  72; 6HR MAX TEMP:  92;

NOGALES        CLEAR     68  10  10 S3        30.04R
6HR MIN TEMP:  66; 6HR MAX TEMP:  86;

SIERRA VISTA   CLEAR     69   5   8 SW13      30.09R
6HR MIN TEMP:  69; 6HR MAX TEMP:  84;

DOUGLAS        CLEAR     61   4  10 E3        30.06S
6HR MIN TEMP:  61; 6HR MAX TEMP:  87;

SAFFORD        CLEAR     76  14   9 N14       29.92R
6HR MIN TEMP:  72; 6HR MAX TEMP:  93;

$$

AZZ020-021-025-026-031-290700-
SOUTHWEST ARIZONA

CITY           SKY/WX    TMP DP  RH WIND       PRES   REMARKS
YUMA           CLEAR     77  36  22 SE10      29.80S
6HR MIN TEMP:  75; 6HR MAX TEMP:  94;

$$

CAZ031-033-041-043-047-048-061-290700-
SOUTHERN CALIFORNIA

CITY           SKY/WX    TMP DP  RH WIND       PRES   REMARKS
DOWNTOWN L.A.  CLOUDY    61  53  75 W6        29.97R
6HR MIN TEMP:  61; 6HR MAX TEMP:  67;

L.A. AIRPORT   CLOUDY    59  53  80 W6        29.97S
6HR MIN TEMP:  59; 6HR MAX TEMP:  63;

SAN DIEGO      CLOUDY    62  56  80 NW3       29.99S
6HR MIN TEMP:  62; 6HR MAX TEMP:  64;

BURBANK        CLOUDY    58  53  84 S5        29.96S
6HR MIN TEMP:  58; 6HR MAX TEMP:  71;

ONTARIO        CLOUDY    61  54  77 W9        29.96R
6HR MIN TEMP:  61; 6HR MAX TEMP:  77;

RIVERSIDE      PTCLDY    60  53  77 W7        29.96R
6HR MIN TEMP:  60; 6HR MAX TEMP:  76;

PALM SPRINGS   CLEAR     76  53  44 W6        29.83R
6HR MIN TEMP:  76; 6HR MAX TEMP:  94;

EL CENTRO NAS  CLEAR     71  38  29 CALM      29.79R
6HR MIN TEMP:  71; 6HR MAX TEMP:  95;

IMPERIAL       CLEAR     77  43  29 SE7       29.77R
6HR MIN TEMP:  76; 6HR MAX TEMP:  97;

BLYTHE         CLEAR     79  38  22 S3        29.80R
6HR MIN TEMP:  78; 6HR MAX TEMP:  96;

NEEDLES        CLEAR     85  32  15 SW13      29.80R
6HR MIN TEMP:  85; 6HR MAX TEMP:  97;

$$

NVZ020-UTZ003-290700-
SOUTHERN NEVADA-UTAH

CITY           SKY/WX    TMP DP  RH WIND       PRES   REMARKS
LAS VEGAS      CLEAR     80  25  13 SW5       29.81R
6HR MIN TEMP:  80; 6HR MAX TEMP:  92;

SALT LAKE CITY MOCLDY    62  38  40 SE8       30.06F
6HR MIN TEMP:  62; 6HR MAX TEMP:  75;

$$

NMZ009-TXZ055-290700-
NEW MEXICO-WEST TEXAS

CITY           SKY/WX    TMP DP  RH WIND       PRES   REMARKS
ALBUQUERQUE    MOCLDY    68  23  18 N7        30.10R
6HR MIN TEMP:  67; 6HR MAX TEMP:  81;

EL PASO        PTCLDY    72   3   6 N6        29.98S
6HR MIN TEMP:  71; 6HR MAX TEMP:  91;

$$


........................KEY........................
SKY/WX - SKY CONDITION/WEATHER
TMP    - TEMPERATURE IN FAHRENHEIT
DP     - DEW POINT IN FAHRENHEIT
RH     - RELATIVE HUMIDITY IN PERCENT
WIND   - DIRECTION AND SPEED IN MILES PER HOUR (MPH)
VRB    - VARIABLE WIND DIRECTION
PRES   - MEAN SEA LEVEL PRESSURE IN INCHES OF MERCURY
         F - FALLING PRESSURE   R - RISING PRESSURE
         S - STEADY PRESSURE
VSB    - VISIBILITY IN MILES
HX     - HEAT INDEX IN FAHRENHEIT
WCI    - WIND CHILL INDEX IN FAHRENHEIT
TC     - TEMPERATURE IN CELSIUS WHICH IS ALSO KNOWN AS
         TEMPERATURE IN CENTIGRADE
AFB    - AIR FORCE BASE
         LUKE AFB IS LUKE AIR FORCE BASE
         DAVIS-MONTHAN IS DAVIS-MONTHAN AIR FORCE BASE
NAS    - NAVAL AIR STATION
         EL CENTRO NAS IS EL CENTRO NAVAL AIR STATION
N/A    - NOT AVAILABLE





USA.gov is the U.S. government's official web portal to all federal, state and local government web resources and services.